owner,sensor,date,latitude,longitude,vertical_datum,sea_water_temperature,qcFlag 
ENP,ioos.station.NOAA.NDBC:LRKF1:1,2017-09-01T00:00:00Z,24.9820,-80.8260,1.0,33.33,2 
ENP,ioos.station.NOAA.NDBC:LRKF1:1,2017-09-01T03:00:00Z,24.9820,-80.8260,1.0,32.45,2 
ENP,ioos.station.NOAA.NDBC:LRKF1:1,2017-09-01T06:00:00Z,24.9820,-80.8260,1.0,31.63,2 
ENP,ioos.station.NOAA.NDBC:LRKF1:1,2017-09-01T07:00:00Z,24.9820,-80.8260,1.0,31.07,2 
ENP,ioos.station.NOAA.NDBC:LRKF1:1,2017-09-01T08:00:00Z,24.9820,-80.8260,1.0,31.04,2 
ENP,ioos.station.NOAA.NDBC:LRKF1:1,2017-09-01T10:00:00Z,24.9820,-80.8260,1.0,30.78,2 
ENP,ioos.station.NOAA.NDBC:LRKF1:1,2017-09-01T11:00:00Z,24.9820,-80.8260,1.0,30.27,2 
ENP,ioos.station.NOAA.NDBC:LRKF1:1,2017-09-01T13:00:00Z,24.9820,-80.8260,1.0,30.62,2 
ENP,ioos.station.NOAA.NDBC:LRKF1:1,2017-09-01T14:00:00Z,24.9820,-80.8260,1.0,30.97,2 
ENP,ioos.station.NOAA.NDBC:LRKF1:1,2017-09-01T15:00:00Z,24.9820,-80.8260,1.0,31.31,2 
ENP,ioos.station.NOAA.NDBC:LRKF1:1,2017-09-01T17:00:00Z,24.9820,-80.8260,1.0,32.01,2 
ENP,ioos.station.NOAA.NDBC:LRKF1:1,2017-09-01T18:00:00Z,24.9820,-80.8260,1.0,32.68,2 
ENP,ioos.station.NOAA.NDBC:LRKF1:1,2017-09-01T19:00:00Z,24.9820,-80.8260,1.0,33.21,2 
ENP,ioos.station.NOAA.NDBC:LRKF1:1,2017-09-01T20:00:00Z,24.9820,-80.8260,1.0,33.56,2 
ENP,ioos.station.NOAA.NDBC:LRKF1:1,2017-09-01T21:00:00Z,24.9820,-80.8260,1.0,33.67,2 
ENP,ioos.station.NOAA.NDBC:LRKF1:1,2017-09-01T23:00:00Z,24.9820,-80.8260,1.0,33.46,2 
ENP,ioos.station.NOAA.NDBC:LRKF1:1,2017-09-02T00:00:00Z,24.9820,-80.8260,1.0,33.06,2 
ENP,ioos.station.NOAA.NDBC:LRKF1:1,2017-09-02T03:00:00Z,24.9820,-80.8260,1.0,32.46,2 
ENP,ioos.station.NOAA.NDBC:LRKF1:1,2017-09-02T06:00:00Z,24.9820,-80.8260,1.0,31.57,2 
ENP,ioos.station.NOAA.NDBC:LRKF1:1,2017-09-02T07:00:00Z,24.9820,-80.8260,1.0,31.5,2 
ENP,ioos.station.NOAA.NDBC:LRKF1:1,2017-09-02T08:00:00Z,24.9820,-80.8260,1.0,31.52,2 
ENP,ioos.station.NOAA.NDBC:LRKF1:1,2017-09-02T10:00:00Z,24.9820,-80.8260,1.0,31.43,2 
ENP,ioos.station.NOAA.NDBC:LRKF1:1,2017-09-02T11:00:00Z,24.9820,-80.8260,1.0,30.83,2 
ENP,ioos.station.NOAA.NDBC:LRKF1:1,2017-09-02T12:00:00Z,24.9820,-80.8260,1.0,30.28,2 
ENP,ioos.station.NOAA.NDBC:LRKF1:1,2017-09-02T13:00:00Z,24.9820,-80.8260,1.0,30.32,2 
ENP,ioos.station.NOAA.NDBC:LRKF1:1,2017-09-02T14:00:00Z,24.9820,-80.8260,1.0,30.28,2 
ENP,ioos.station.NOAA.NDBC:LRKF1:1,2017-09-02T15:00:00Z,24.9820,-80.8260,1.0,30.37,2 
ENP,ioos.station.NOAA.NDBC:LRKF1:1,2017-09-02T16:00:00Z,24.9820,-80.8260,1.0,30.25,2 
ENP,ioos.station.NOAA.NDBC:LRKF1:1,2017-09-02T17:00:00Z,24.9820,-80.8260,1.0,30.64,2 
ENP,ioos.station.NOAA.NDBC:LRKF1:1,2017-09-02T18:00:00Z,24.9820,-80.8260,1.0,30.94,2 
ENP,ioos.station.NOAA.NDBC:LRKF1:1,2017-09-02T19:00:00Z,24.9820,-80.8260,1.0,30.9,2 
ENP,ioos.station.NOAA.NDBC:LRKF1:1,2017-09-02T20:00:00Z,24.9820,-80.8260,1.0,31.0,2 
ENP,ioos.station.NOAA.NDBC:LRKF1:1,2017-09-02T21:00:00Z,24.9820,-80.8260,1.0,31.18,2 
ENP,ioos.station.NOAA.NDBC:LRKF1:1,2017-09-02T22:00:00Z,24.9820,-80.8260,1.0,31.31,2 
ENP,ioos.station.NOAA.NDBC:LRKF1:1,2017-09-02T23:00:00Z,24.9820,-80.8260,1.0,31.38,2 
ENP,ioos.station.NOAA.NDBC:LRKF1:1,2017-09-03T00:00:00Z,24.9820,-80.8260,1.0,31.33,2 
ENP,ioos.station.NOAA.NDBC:LRKF1:1,2017-09-03T03:00:00Z,24.9820,-80.8260,1.0,31.02,2 
ENP,ioos.station.NOAA.NDBC:LRKF1:1,2017-09-03T06:00:00Z,24.9820,-80.8260,1.0,30.8,2 
ENP,ioos.station.NOAA.NDBC:LRKF1:1,2017-09-03T07:00:00Z,24.9820,-80.8260,1.0,30.34,2 
ENP,ioos.station.NOAA.NDBC:LRKF1:1,2017-09-03T08:00:00Z,24.9820,-80.8260,1.0,29.87,2 
ENP,ioos.station.NOAA.NDBC:LRKF1:1,2017-09-03T11:00:00Z,24.9820,-80.8260,1.0,29.67,2 
ENP,ioos.station.NOAA.NDBC:LRKF1:1,2017-09-03T12:00:00Z,24.9820,-80.8260,1.0,29.41,2 
ENP,ioos.station.NOAA.NDBC:LRKF1:1,2017-09-03T13:00:00Z,24.9820,-80.8260,1.0,29.65,2 
ENP,ioos.station.NOAA.NDBC:LRKF1:1,2017-09-03T14:00:00Z,24.9820,-80.8260,1.0,30.1,2 
ENP,ioos.station.NOAA.NDBC:LRKF1:1,2017-09-03T15:00:00Z,24.9820,-80.8260,1.0,30.73,2 
ENP,ioos.station.NOAA.NDBC:LRKF1:1,2017-09-03T16:00:00Z,24.9820,-80.8260,1.0,31.02,2 
ENP,ioos.station.NOAA.NDBC:LRKF1:1,2017-09-03T17:00:00Z,24.9820,-80.8260,1.0,31.52,2 
ENP,ioos.station.NOAA.NDBC:LRKF1:1,2017-09-03T19:00:00Z,24.9820,-80.8260,1.0,32.46,2 
ENP,ioos.station.NOAA.NDBC:LRKF1:1,2017-09-03T20:00:00Z,24.9820,-80.8260,1.0,32.66,2 
ENP,ioos.station.NOAA.NDBC:LRKF1:1,2017-09-03T21:00:00Z,24.9820,-80.8260,1.0,32.77,2 
ENP,ioos.station.NOAA.NDBC:LRKF1:1,2017-09-03T22:00:00Z,24.9820,-80.8260,1.0,32.88,2 
ENP,ioos.station.NOAA.NDBC:LRKF1:1,2017-09-03T23:00:00Z,24.9820,-80.8260,1.0,32.78,2 
ENP,ioos.station.NOAA.NDBC:LRKF1:1,2017-09-04T00:00:00Z,24.9820,-80.8260,1.0,32.65,2 
ENP,ioos.station.NOAA.NDBC:LRKF1:1,2017-09-04T03:00:00Z,24.9820,-80.8260,1.0,32.15,2 
ENP,ioos.station.NOAA.NDBC:LRKF1:1,2017-09-04T06:00:00Z,24.9820,-80.8260,1.0,31.52,2 
ENP,ioos.station.NOAA.NDBC:LRKF1:1,2017-09-04T07:00:00Z,24.9820,-80.8260,1.0,31.37,2 
ENP,ioos.station.NOAA.NDBC:LRKF1:1,2017-09-04T11:00:00Z,24.9820,-80.8260,1.0,29.92,2 
ENP,ioos.station.NOAA.NDBC:LRKF1:1,2017-09-04T13:00:00Z,24.9820,-80.8260,1.0,29.81,2 
ENP,ioos.station.NOAA.NDBC:LRKF1:1,2017-09-04T14:00:00Z,24.9820,-80.8260,1.0,30.37,2 
ENP,ioos.station.NOAA.NDBC:LRKF1:1,2017-09-04T15:00:00Z,24.9820,-80.8260,1.0,30.83,2 
ENP,ioos.station.NOAA.NDBC:LRKF1:1,2017-09-04T16:00:00Z,24.9820,-80.8260,1.0,31.06,2 
ENP,ioos.station.NOAA.NDBC:LRKF1:1,2017-09-04T17:00:00Z,24.9820,-80.8260,1.0,31.34,2 
ENP,ioos.station.NOAA.NDBC:LRKF1:1,2017-09-04T19:00:00Z,24.9820,-80.8260,1.0,32.64,2 
ENP,ioos.station.NOAA.NDBC:LRKF1:1,2017-09-04T20:00:00Z,24.9820,-80.8260,1.0,32.67,2 
ENP,ioos.station.NOAA.NDBC:LRKF1:1,2017-09-04T21:00:00Z,24.9820,-80.8260,1.0,32.72,2 
ENP,ioos.station.NOAA.NDBC:LRKF1:1,2017-09-04T23:00:00Z,24.9820,-80.8260,1.0,32.48,2 
ENP,ioos.station.NOAA.NDBC:LRKF1:1,2017-09-05T03:00:00Z,24.9820,-80.8260,1.0,32.03,2 
ENP,ioos.station.NOAA.NDBC:LRKF1:1,2017-09-05T06:00:00Z,24.9820,-80.8260,1.0,31.62,2 
ENP,ioos.station.NOAA.NDBC:LRKF1:1,2017-09-05T07:00:00Z,24.9820,-80.8260,1.0,31.36,2 
ENP,ioos.station.NOAA.NDBC:LRKF1:1,2017-09-05T10:00:00Z,24.9820,-80.8260,1.0,30.17,2 
ENP,ioos.station.NOAA.NDBC:LRKF1:1,2017-09-05T11:00:00Z,24.9820,-80.8260,1.0,29.96,2 
ENP,ioos.station.NOAA.NDBC:LRKF1:1,2017-09-05T13:00:00Z,24.9820,-80.8260,1.0,29.81,2 
ENP,ioos.station.NOAA.NDBC:LRKF1:1,2017-09-05T14:00:00Z,24.9820,-80.8260,1.0,30.31,2 
ENP,ioos.station.NOAA.NDBC:LRKF1:1,2017-09-05T15:00:00Z,24.9820,-80.8260,1.0,30.65,2 
ENP,ioos.station.NOAA.NDBC:LRKF1:1,2017-09-05T17:00:00Z,24.9820,-80.8260,1.0,31.4,2 
ENP,ioos.station.NOAA.NDBC:LRKF1:1,2017-09-05T18:00:00Z,24.9820,-80.8260,1.0,32.16,2 
ENP,ioos.station.NOAA.NDBC:LRKF1:1,2017-09-05T20:00:00Z,24.9820,-80.8260,1.0,32.36,2 
ENP,ioos.station.NOAA.NDBC:LRKF1:1,2017-09-05T23:00:00Z,24.9820,-80.8260,1.0,31.93,2 
ENP,ioos.station.NOAA.NDBC:LRKF1:1,2017-09-06T10:00:00Z,24.9820,-80.8260,1.0,30.12,2 
ENP,ioos.station.NOAA.NDBC:LRKF1:1,2017-09-24T16:00:00Z,24.9820,-80.8260,1.0,30.42,2 
ENP,ioos.station.NOAA.NDBC:LRKF1:1,2017-09-24T17:00:00Z,24.9820,-80.8260,1.0,30.96,2 
ENP,ioos.station.NOAA.NDBC:LRKF1:1,2017-09-24T18:00:00Z,24.9820,-80.8260,1.0,31.25,2 
ENP,ioos.station.NOAA.NDBC:LRKF1:1,2017-09-24T19:00:00Z,24.9820,-80.8260,1.0,31.4,2 
ENP,ioos.station.NOAA.NDBC:LRKF1:1,2017-09-24T20:00:00Z,24.9820,-80.8260,1.0,31.6,2 
ENP,ioos.station.NOAA.NDBC:LRKF1:1,2017-09-24T21:00:00Z,24.9820,-80.8260,1.0,31.81,2 
ENP,ioos.station.NOAA.NDBC:LRKF1:1,2017-09-24T22:00:00Z,24.9820,-80.8260,1.0,32.51,2 
ENP,ioos.station.NOAA.NDBC:LRKF1:1,2017-09-24T23:00:00Z,24.9820,-80.8260,1.0,32.64,2 
ENP,ioos.station.NOAA.NDBC:LRKF1:1,2017-09-25T00:00:00Z,24.9820,-80.8260,1.0,32.81,2 
ENP,ioos.station.NOAA.NDBC:LRKF1:1,2017-09-25T02:00:00Z,24.9820,-80.8260,1.0,31.9,2 
ENP,ioos.station.NOAA.NDBC:LRKF1:1,2017-09-25T03:00:00Z,24.9820,-80.8260,1.0,31.8,2 
ENP,ioos.station.NOAA.NDBC:LRKF1:1,2017-09-25T05:00:00Z,24.9820,-80.8260,1.0,32.01,2 
ENP,ioos.station.NOAA.NDBC:LRKF1:1,2017-09-25T06:00:00Z,24.9820,-80.8260,1.0,31.82,2 
ENP,ioos.station.NOAA.NDBC:LRKF1:1,2017-09-25T07:00:00Z,24.9820,-80.8260,1.0,31.49,2 
ENP,ioos.station.NOAA.NDBC:LRKF1:1,2017-09-25T08:00:00Z,24.9820,-80.8260,1.0,31.28,2 
ENP,ioos.station.NOAA.NDBC:LRKF1:1,2017-09-25T10:00:00Z,24.9820,-80.8260,1.0,31.09,2 
ENP,ioos.station.NOAA.NDBC:LRKF1:1,2017-09-25T11:00:00Z,24.9820,-80.8260,1.0,30.86,2 
ENP,ioos.station.NOAA.NDBC:LRKF1:1,2017-09-25T12:00:00Z,24.9820,-80.8260,1.0,30.64,2 
ENP,ioos.station.NOAA.NDBC:LRKF1:1,2017-09-25T13:00:00Z,24.9820,-80.8260,1.0,30.67,2 
ENP,ioos.station.NOAA.NDBC:LRKF1:1,2017-09-25T14:00:00Z,24.9820,-80.8260,1.0,30.63,2 
ENP,ioos.station.NOAA.NDBC:LRKF1:1,2017-09-25T15:00:00Z,24.9820,-80.8260,1.0,31.02,2 
ENP,ioos.station.NOAA.NDBC:LRKF1:1,2017-09-25T16:00:00Z,24.9820,-80.8260,1.0,31.4,2 
ENP,ioos.station.NOAA.NDBC:LRKF1:1,2017-09-25T17:00:00Z,24.9820,-80.8260,1.0,31.94,2 
ENP,ioos.station.NOAA.NDBC:LRKF1:1,2017-09-25T18:00:00Z,24.9820,-80.8260,1.0,32.19,2 
ENP,ioos.station.NOAA.NDBC:LRKF1:1,2017-09-25T19:00:00Z,24.9820,-80.8260,1.0,32.22,2 
ENP,ioos.station.NOAA.NDBC:LRKF1:1,2017-09-25T20:00:00Z,24.9820,-80.8260,1.0,32.22,2 
ENP,ioos.station.NOAA.NDBC:LRKF1:1,2017-09-25T21:00:00Z,24.9820,-80.8260,1.0,32.17,2 
ENP,ioos.station.NOAA.NDBC:LRKF1:1,2017-09-25T22:00:00Z,24.9820,-80.8260,1.0,32.25,2 
ENP,ioos.station.NOAA.NDBC:LRKF1:1,2017-09-25T23:00:00Z,24.9820,-80.8260,1.0,32.46,2 
ENP,ioos.station.NOAA.NDBC:LRKF1:1,2017-09-26T00:00:00Z,24.9820,-80.8260,1.0,32.72,2 
ENP,ioos.station.NOAA.NDBC:LRKF1:1,2017-09-26T02:00:00Z,24.9820,-80.8260,1.0,32.45,2 
ENP,ioos.station.NOAA.NDBC:LRKF1:1,2017-09-26T03:00:00Z,24.9820,-80.8260,1.0,32.23,2 
ENP,ioos.station.NOAA.NDBC:LRKF1:1,2017-09-26T05:00:00Z,24.9820,-80.8260,1.0,32.07,2 
ENP,ioos.station.NOAA.NDBC:LRKF1:1,2017-09-26T06:00:00Z,24.9820,-80.8260,1.0,32.02,2 
ENP,ioos.station.NOAA.NDBC:LRKF1:1,2017-09-26T07:00:00Z,24.9820,-80.8260,1.0,31.82,2 
ENP,ioos.station.NOAA.NDBC:LRKF1:1,2017-09-26T08:00:00Z,24.9820,-80.8260,1.0,31.54,2 
ENP,ioos.station.NOAA.NDBC:LRKF1:1,2017-09-26T10:00:00Z,24.9820,-80.8260,1.0,30.98,2 
ENP,ioos.station.NOAA.NDBC:LRKF1:1,2017-09-26T11:00:00Z,24.9820,-80.8260,1.0,30.85,2 
ENP,ioos.station.NOAA.NDBC:LRKF1:1,2017-09-26T12:00:00Z,24.9820,-80.8260,1.0,30.42,2 
ENP,ioos.station.NOAA.NDBC:LRKF1:1,2017-09-26T13:00:00Z,24.9820,-80.8260,1.0,30.46,2 
ENP,ioos.station.NOAA.NDBC:LRKF1:1,2017-09-26T14:00:00Z,24.9820,-80.8260,1.0,30.46,2 
ENP,ioos.station.NOAA.NDBC:LRKF1:1,2017-09-26T15:00:00Z,24.9820,-80.8260,1.0,30.54,2 
ENP,ioos.station.NOAA.NDBC:LRKF1:1,2017-09-26T16:00:00Z,24.9820,-80.8260,1.0,30.87,2 
ENP,ioos.station.NOAA.NDBC:LRKF1:1,2017-09-26T17:00:00Z,24.9820,-80.8260,1.0,30.78,2 
ENP,ioos.station.NOAA.NDBC:LRKF1:1,2017-09-26T18:00:00Z,24.9820,-80.8260,1.0,30.78,2 
ENP,ioos.station.NOAA.NDBC:LRKF1:1,2017-09-26T19:00:00Z,24.9820,-80.8260,1.0,30.85,2 
ENP,ioos.station.NOAA.NDBC:LRKF1:1,2017-09-26T20:00:00Z,24.9820,-80.8260,1.0,31.01,2 
ENP,ioos.station.NOAA.NDBC:LRKF1:1,2017-09-26T21:00:00Z,24.9820,-80.8260,1.0,31.01,2 
ENP,ioos.station.NOAA.NDBC:LRKF1:1,2017-09-26T22:00:00Z,24.9820,-80.8260,1.0,31.0,2 
ENP,ioos.station.NOAA.NDBC:LRKF1:1,2017-09-26T23:00:00Z,24.9820,-80.8260,1.0,30.94,2 
ENP,ioos.station.NOAA.NDBC:LRKF1:1,2017-09-27T00:00:00Z,24.9820,-80.8260,1.0,30.73,2 
ENP,ioos.station.NOAA.NDBC:LRKF1:1,2017-09-27T02:00:00Z,24.9820,-80.8260,1.0,30.67,2 
ENP,ioos.station.NOAA.NDBC:LRKF1:1,2017-09-27T03:00:00Z,24.9820,-80.8260,1.0,30.58,2 
ENP,ioos.station.NOAA.NDBC:LRKF1:1,2017-09-27T05:00:00Z,24.9820,-80.8260,1.0,30.25,2 
ENP,ioos.station.NOAA.NDBC:LRKF1:1,2017-09-27T06:00:00Z,24.9820,-80.8260,1.0,30.25,2 
ENP,ioos.station.NOAA.NDBC:LRKF1:1,2017-09-27T07:00:00Z,24.9820,-80.8260,1.0,30.28,2 
ENP,ioos.station.NOAA.NDBC:LRKF1:1,2017-09-27T08:00:00Z,24.9820,-80.8260,1.0,30.25,2 
ENP,ioos.station.NOAA.NDBC:LRKF1:1,2017-09-27T10:00:00Z,24.9820,-80.8260,1.0,30.02,2 
ENP,ioos.station.NOAA.NDBC:LRKF1:1,2017-09-27T11:00:00Z,24.9820,-80.8260,1.0,29.95,2 
ENP,ioos.station.NOAA.NDBC:LRKF1:1,2017-09-27T12:00:00Z,24.9820,-80.8260,1.0,29.86,2 
ENP,ioos.station.NOAA.NDBC:LRKF1:1,2017-09-27T13:00:00Z,24.9820,-80.8260,1.0,29.98,2 
ENP,ioos.station.NOAA.NDBC:LRKF1:1,2017-09-27T23:00:00Z,24.9820,-80.8260,1.0,30.65,2 
ENP,ioos.station.NOAA.NDBC:LRKF1:1,2017-09-28T00:00:00Z,24.9820,-80.8260,1.0,30.5,2 
ENP,ioos.station.NOAA.NDBC:LRKF1:1,2017-09-28T02:00:00Z,24.9820,-80.8260,1.0,30.5,2 
ENP,ioos.station.NOAA.NDBC:LRKF1:1,2017-09-28T03:00:00Z,24.9820,-80.8260,1.0,30.59,2 
ENP,ioos.station.NOAA.NDBC:LRKF1:1,2017-09-28T05:00:00Z,24.9820,-80.8260,1.0,30.48,2 
ENP,ioos.station.NOAA.NDBC:LRKF1:1,2017-09-28T06:00:00Z,24.9820,-80.8260,1.0,30.08,2 
ENP,ioos.station.NOAA.NDBC:LRKF1:1,2017-09-28T07:00:00Z,24.9820,-80.8260,1.0,30.04,2 
ENP,ioos.station.NOAA.NDBC:LRKF1:1,2017-09-28T08:00:00Z,24.9820,-80.8260,1.0,29.96,2 
ENP,ioos.station.NOAA.NDBC:LRKF1:1,2017-09-28T10:00:00Z,24.9820,-80.8260,1.0,29.82,2 
ENP,ioos.station.NOAA.NDBC:LRKF1:1,2017-09-28T11:00:00Z,24.9820,-80.8260,1.0,29.61,2 
ENP,ioos.station.NOAA.NDBC:LRKF1:1,2017-09-28T12:00:00Z,24.9820,-80.8260,1.0,29.55,2 
ENP,ioos.station.NOAA.NDBC:LRKF1:1,2017-09-28T13:00:00Z,24.9820,-80.8260,1.0,29.71,2 
ENP,ioos.station.NOAA.NDBC:LRKF1:1,2017-09-28T15:00:00Z,24.9820,-80.8260,1.0,30.56,2 
ENP,ioos.station.NOAA.NDBC:LRKF1:1,2017-09-28T23:00:00Z,24.9820,-80.8260,1.0,30.68,2 
ENP,ioos.station.NOAA.NDBC:LRKF1:1,2017-09-29T01:00:00Z,24.9820,-80.8260,1.0,30.36,2 
ENP,ioos.station.NOAA.NDBC:LRKF1:1,2017-09-29T02:00:00Z,24.9820,-80.8260,1.0,30.29,2 
ENP,ioos.station.NOAA.NDBC:LRKF1:1,2017-09-29T03:00:00Z,24.9820,-80.8260,1.0,29.86,2 
ENP,ioos.station.NOAA.NDBC:LRKF1:1,2017-09-29T05:00:00Z,24.9820,-80.8260,1.0,29.67,2 
ENP,ioos.station.NOAA.NDBC:LRKF1:1,2017-09-29T06:00:00Z,24.9820,-80.8260,1.0,29.6,2 
ENP,ioos.station.NOAA.NDBC:LRKF1:1,2017-09-29T07:00:00Z,24.9820,-80.8260,1.0,29.37,2 
ENP,ioos.station.NOAA.NDBC:LRKF1:1,2017-09-29T08:00:00Z,24.9820,-80.8260,1.0,29.44,2 
ENP,ioos.station.NOAA.NDBC:LRKF1:1,2017-09-29T10:00:00Z,24.9820,-80.8260,1.0,29.46,2 
ENP,ioos.station.NOAA.NDBC:LRKF1:1,2017-09-29T11:00:00Z,24.9820,-80.8260,1.0,29.51,2 
ENP,ioos.station.NOAA.NDBC:LRKF1:1,2017-09-29T12:00:00Z,24.9820,-80.8260,1.0,29.5,2 
ENP,ioos.station.NOAA.NDBC:LRKF1:1,2017-09-29T14:00:00Z,24.9820,-80.8260,1.0,28.81,2 
ENP,ioos.station.NOAA.NDBC:LRKF1:1,2017-09-29T15:00:00Z,24.9820,-80.8260,1.0,29.37,2 
ENP,ioos.station.NOAA.NDBC:LRKF1:1,2017-09-29T17:00:00Z,24.9820,-80.8260,1.0,30.76,2 
ENP,ioos.station.NOAA.NDBC:LRKF1:1,2017-09-29T22:00:00Z,24.9820,-80.8260,1.0,30.38,2 
ENP,ioos.station.NOAA.NDBC:LRKF1:1,2017-09-29T23:00:00Z,24.9820,-80.8260,1.0,29.78,2 
ENP,ioos.station.NOAA.NDBC:LRKF1:1,2017-09-30T00:00:00Z,24.9820,-80.8260,1.0,29.46,2 
ENP,ioos.station.NOAA.NDBC:LRKF1:1,2017-09-30T02:00:00Z,24.9820,-80.8260,1.0,29.32,2 
ENP,ioos.station.NOAA.NDBC:LRKF1:1,2017-09-30T03:00:00Z,24.9820,-80.8260,1.0,29.05,2 
ENP,ioos.station.NOAA.NDBC:LRKF1:1,2017-09-30T05:00:00Z,24.9820,-80.8260,1.0,29.39,2 
ENP,ioos.station.NOAA.NDBC:LRKF1:1,2017-09-30T06:00:00Z,24.9820,-80.8260,1.0,29.73,2 
ENP,ioos.station.NOAA.NDBC:LRKF1:1,2017-09-30T08:00:00Z,24.9820,-80.8260,1.0,29.62,2 
ENP,ioos.station.NOAA.NDBC:LRKF1:1,2017-09-30T10:00:00Z,24.9820,-80.8260,1.0,28.9,2 
ENP,ioos.station.NOAA.NDBC:LRKF1:1,2017-09-30T11:00:00Z,24.9820,-80.8260,1.0,28.61,2 
ENP,ioos.station.NOAA.NDBC:LRKF1:1,2017-09-30T12:00:00Z,24.9820,-80.8260,1.0,28.51,2 
ENP,ioos.station.NOAA.NDBC:LRKF1:1,2017-09-30T13:00:00Z,24.9820,-80.8260,1.0,28.66,2 
ENP,ioos.station.NOAA.NDBC:LRKF1:1,2017-09-30T14:00:00Z,24.9820,-80.8260,1.0,28.79,2 
ENP,ioos.station.NOAA.NDBC:LRKF1:1,2017-09-30T15:00:00Z,24.9820,-80.8260,1.0,29.09,2 
ENP,ioos.station.NOAA.NDBC:LRKF1:1,2017-09-30T23:00:00Z,24.9820,-80.8260,1.0,30.53,2 
 
DISCLAIMER: The Gulf of Mexico Coastal and Ocean Observing (GCOOS) Data Portal aggregates data from the regional data providers for the convenience of all data users. Data published on this website should not be used for navigation or certain other uses as we cannot guarantee data accuracy or availability. The data and delivery services are provided 'as is' without warranty of any kind. Data Source: Gulf of Mexico Coastal Ocean Observing System Data Portal (http://data.gcoos.org/) 
